Time,TemperatureF,DewpointF,PressureIn,WindDirection,WindDirectionDegrees,WindSpeedMPH,WindSpeedGustMPH,Humidity,HourlyPrecipIn,Conditions,Clouds,dailyrainin,SoftwareType,DateUTC
2013-02-17 00:02:00,18.0,5.0,29.83,NNW,336,0.0,-999.0,55,-99.99,,,-99.99,,2013-02-17 05:02:00,
2013-02-17 00:12:00,18.0,4.0,29.82,NNW,336,1.0,-999.0,53,-99.99,,,-99.99,,2013-02-17 05:12:00,
2013-02-17 00:22:00,18.0,4.0,29.82,NNW,336,1.0,-999.0,53,-99.99,,,-99.99,,2013-02-17 05:22:00,
2013-02-17 00:33:00,18.0,4.0,29.81,NNW,336,0.0,-999.0,53,-99.99,,,-99.99,,2013-02-17 05:33:00,
2013-02-17 00:42:00,18.0,4.0,29.81,NNW,336,0.0,-999.0,53,-99.99,,,-99.99,,2013-02-17 05:42:00,
2013-02-17 00:52:00,17.0,2.0,29.82,NNW,336,0.0,-999.0,52,-99.99,,,-99.99,,2013-02-17 05:52:00,
2013-02-17 01:02:00,17.0,2.0,29.81,North,359,2.0,-999.0,51,-99.99,,,-99.99,,2013-02-17 06:02:00,
2013-02-17 01:11:00,17.0,2.0,29.81,North,359,2.0,-999.0,51,-99.99,,,-99.99,,2013-02-17 06:11:00,
2013-02-17 01:21:00,17.0,2.0,29.81,North,359,2.0,-999.0,51,-99.99,,,-99.99,,2013-02-17 06:21:00,
2013-02-17 01:32:00,17.0,2.0,29.81,North,359,2.0,-999.0,51,-99.99,,,-99.99,,2013-02-17 06:32:00,
2013-02-17 01:42:00,17.0,2.0,29.81,North,359,2.0,-999.0,51,-99.99,,,-99.99,,2013-02-17 06:42:00,
2013-02-17 01:52:00,17.0,2.0,29.79,WNW,299,1.0,-999.0,51,-99.99,,,-99.99,,2013-02-17 06:52:00,
2013-02-17 02:01:00,17.0,2.0,29.79,WNW,299,1.0,-999.0,51,-99.99,,,-99.99,,2013-02-17 07:01:00,
2013-02-17 02:11:00,17.0,2.0,29.79,WNW,299,1.0,-999.0,51,-99.99,,,-99.99,,2013-02-17 07:11:00,
2013-02-17 02:21:00,16.0,1.0,29.79,WNW,299,0.0,-999.0,51,-99.99,,,-99.99,,2013-02-17 07:21:00,
2013-02-17 02:32:00,16.0,2.0,29.78,WNW,299,1.0,-999.0,52,-99.99,,,-99.99,,2013-02-17 07:32:00,
2013-02-17 02:42:00,16.0,2.0,29.78,WNW,299,1.0,-999.0,52,-99.99,,,-99.99,,2013-02-17 07:42:00,
2013-02-17 02:52:00,15.0,1.0,29.78,WNW,299,0.0,-999.0,53,-99.99,,,-99.99,,2013-02-17 07:52:00,
2013-02-17 03:01:00,15.0,1.0,29.78,WNW,299,1.0,-999.0,54,-99.99,,,-99.99,,2013-02-17 08:01:00,
2013-02-17 03:11:00,15.0,1.0,29.78,WNW,299,1.0,-999.0,54,-99.99,,,-99.99,,2013-02-17 08:11:00,
2013-02-17 03:21:00,15.0,1.0,29.77,WNW,299,2.0,-999.0,54,-99.99,,,-99.99,,2013-02-17 08:21:00,
2013-02-17 03:32:00,15.0,1.0,29.78,WNW,299,3.0,-999.0,53,-99.99,,,-99.99,,2013-02-17 08:32:00,
2013-02-17 03:42:00,15.0,1.0,29.78,WNW,299,3.0,-999.0,53,-99.99,,,-99.99,,2013-02-17 08:42:00,
2013-02-17 03:52:00,14.0,0.0,29.78,North,353,2.0,-999.0,53,-99.99,,,-99.99,,2013-02-17 08:52:00,
2013-02-17 04:02:00,14.0,0.0,29.78,North,353,2.0,-999.0,54,-99.99,,,-99.99,,2013-02-17 09:02:00,
2013-02-17 04:11:00,14.0,0.0,29.78,North,353,2.0,-999.0,54,-99.99,,,-99.99,,2013-02-17 09:11:00,
2013-02-17 04:21:00,14.0,0.0,29.78,North,356,2.0,-999.0,54,-99.99,,,-99.99,,2013-02-17 09:21:00,
2013-02-17 04:32:00,14.0,1.0,29.78,NNW,335,3.0,-999.0,56,-99.99,,,-99.99,,2013-02-17 09:32:00,
2013-02-17 04:42:00,14.0,1.0,29.78,NNW,335,3.0,-999.0,56,-99.99,,,-99.99,,2013-02-17 09:42:00,
2013-02-17 04:52:00,14.0,2.0,29.78,NW,309,3.0,-999.0,57,-99.99,,,-99.99,,2013-02-17 09:52:00,
2013-02-17 05:01:00,13.0,1.0,29.78,NW,316,3.0,-999.0,57,-99.99,,,-99.99,,2013-02-17 10:01:00,
2013-02-17 05:11:00,13.0,1.0,29.78,NW,316,3.0,-999.0,57,-99.99,,,-99.99,,2013-02-17 10:11:00,
2013-02-17 05:21:00,12.0,0.0,29.78,WNW,296,2.0,-999.0,57,-99.99,,,-99.99,,2013-02-17 10:21:00,
2013-02-17 05:32:00,12.0,0.0,29.78,WNW,291,3.0,-999.0,57,-99.99,,,-99.99,,2013-02-17 10:32:00,
2013-02-17 05:42:00,12.0,0.0,29.78,WNW,291,3.0,-999.0,57,-99.99,,,-99.99,,2013-02-17 10:42:00,
2013-02-17 05:52:00,11.0,-1.0,29.79,WNW,302,3.0,-999.0,57,-99.99,,,-99.99,,2013-02-17 10:52:00,
2013-02-17 06:01:00,11.0,-1.0,29.79,NW,323,3.0,-999.0,57,-99.99,,,-99.99,,2013-02-17 11:01:00,
2013-02-17 06:11:00,11.0,-1.0,29.79,NW,323,3.0,-999.0,57,-99.99,,,-99.99,,2013-02-17 11:11:00,
2013-02-17 06:22:00,11.0,-1.0,29.80,NNW,339,5.0,-999.0,58,-99.99,,,-99.99,,2013-02-17 11:22:00,
2013-02-17 06:32:00,11.0,-1.0,29.80,NNW,328,3.0,-999.0,58,-99.99,,,-99.99,,2013-02-17 11:32:00,
2013-02-17 06:42:00,11.0,-1.0,29.80,NNW,328,3.0,-999.0,58,-99.99,,,-99.99,,2013-02-17 11:42:00,
2013-02-17 06:53:00,11.0,0.0,29.80,NW,323,4.0,-999.0,59,-99.99,,,-99.99,,2013-02-17 11:53:00,
2013-02-17 07:03:00,10.0,-1.0,29.80,NW,309,5.0,-999.0,59,-99.99,,,-99.99,,2013-02-17 12:03:00,
2013-02-17 07:11:00,10.0,-1.0,29.80,NW,309,5.0,-999.0,59,-99.99,,,-99.99,,2013-02-17 12:11:00,
2013-02-17 07:22:00,10.0,-1.0,29.79,NW,320,6.0,-999.0,60,-99.99,,,-99.99,,2013-02-17 12:22:00,
2013-02-17 07:32:00,10.0,-1.0,29.79,NW,320,6.0,-999.0,60,-99.99,,,-99.99,,2013-02-17 12:32:00,
2013-02-17 07:42:00,10.0,-1.0,29.79,NW,320,6.0,-999.0,60,-99.99,,,-99.99,,2013-02-17 12:42:00,
2013-02-17 07:52:00,9.0,-2.0,29.80,NW,311,6.0,-999.0,60,-99.99,,,-99.99,,2013-02-17 12:52:00,
2013-02-17 08:02:00,9.0,-2.0,29.80,NW,311,6.0,-999.0,60,-99.99,,,-99.99,,2013-02-17 13:02:00,
2013-02-17 08:12:00,9.0,-2.0,29.80,NW,311,6.0,-999.0,60,-99.99,,,-99.99,,2013-02-17 13:12:00,
2013-02-17 08:22:00,9.0,-2.0,29.80,North,0,6.0,-999.0,59,-99.99,,,-99.99,,2013-02-17 13:22:00,
2013-02-17 08:32:00,9.0,-2.0,29.81,NNW,343,5.0,-999.0,59,-99.99,,,-99.99,,2013-02-17 13:32:00,
2013-02-17 08:42:00,9.0,-2.0,29.81,NNW,343,5.0,-999.0,59,-99.99,,,-99.99,,2013-02-17 13:42:00,
2013-02-17 08:51:00,10.0,-2.0,29.80,North,0,6.0,-999.0,58,-99.99,,,-99.99,,2013-02-17 13:51:00,
2013-02-17 09:01:00,10.0,-2.0,29.79,WNW,296,5.0,-999.0,57,-99.99,,,-99.99,,2013-02-17 14:01:00,
2013-02-17 09:11:00,10.0,-2.0,29.79,WNW,296,5.0,-999.0,57,-99.99,,,-99.99,,2013-02-17 14:11:00,
2013-02-17 09:22:00,11.0,-1.0,29.79,NW,308,4.0,-999.0,57,-99.99,,,-99.99,,2013-02-17 14:22:00,
2013-02-17 09:32:00,11.0,-1.0,29.79,NW,308,4.0,-999.0,57,-99.99,,,-99.99,,2013-02-17 14:32:00,
2013-02-17 09:42:00,11.0,-1.0,29.79,NW,308,4.0,-999.0,57,-99.99,,,-99.99,,2013-02-17 14:42:00,
2013-02-17 09:52:00,11.0,-2.0,29.80,WNW,291,7.0,-999.0,54,-99.99,,,-99.99,,2013-02-17 14:52:00,
2013-02-17 10:02:00,12.0,-1.0,29.80,NNW,329,6.0,-999.0,54,-99.99,,,-99.99,,2013-02-17 15:02:00,
2013-02-17 10:11:00,12.0,-1.0,29.80,NNW,329,6.0,-999.0,54,-99.99,,,-99.99,,2013-02-17 15:11:00,
2013-02-17 10:22:00,12.0,-2.0,29.80,NW,308,7.0,-999.0,53,-99.99,,,-99.99,,2013-02-17 15:22:00,
2013-02-17 10:32:00,12.0,-2.0,29.79,NW,326,8.0,-999.0,53,-99.99,,,-99.99,,2013-02-17 15:32:00,
2013-02-17 10:42:00,12.0,-2.0,29.79,NW,326,8.0,-999.0,53,-99.99,,,-99.99,,2013-02-17 15:42:00,
2013-02-17 10:52:00,12.0,-1.0,29.79,NNW,329,8.0,-999.0,55,-99.99,,,-99.99,,2013-02-17 15:52:00,
2013-02-17 11:01:00,13.0,0.0,29.79,WNW,294,8.0,-999.0,55,-99.99,,,-99.99,,2013-02-17 16:01:00,
2013-02-17 11:12:00,13.0,0.0,29.79,WNW,294,8.0,-999.0,55,-99.99,,,-99.99,,2013-02-17 16:12:00,
2013-02-17 11:22:00,13.0,0.0,29.79,NNW,336,8.0,-999.0,55,-99.99,,,-99.99,,2013-02-17 16:22:00,
2013-02-17 11:32:00,14.0,0.0,29.79,NNW,333,9.0,-999.0,53,-99.99,,,-99.99,,2013-02-17 16:32:00,
2013-02-17 11:42:00,14.0,0.0,29.79,NNW,333,9.0,-999.0,53,-99.99,,,-99.99,,2013-02-17 16:42:00,
2013-02-17 11:52:00,14.0,0.0,29.78,NW,304,9.0,-999.0,52,-99.99,,,-99.99,,2013-02-17 16:52:00,
2013-02-17 12:02:00,15.0,1.0,29.78,NW,316,9.0,-999.0,52,-99.99,,,-99.99,,2013-02-17 17:02:00,
2013-02-17 12:11:00,15.0,1.0,29.78,NW,316,9.0,-999.0,52,-99.99,,,-99.99,,2013-02-17 17:11:00,
2013-02-17 12:21:00,15.0,1.0,29.78,NW,316,9.0,-999.0,52,-99.99,,,-99.99,,2013-02-17 17:21:00,
2013-02-17 12:32:00,16.0,1.0,29.77,NW,318,11.0,-999.0,50,-99.99,,,-99.99,,2013-02-17 17:32:00,
2013-02-17 12:42:00,16.0,1.0,29.77,NW,318,11.0,-999.0,50,-99.99,,,-99.99,,2013-02-17 17:42:00,
2013-02-17 12:52:00,15.0,0.0,29.77,WNW,289,12.0,-999.0,50,-99.99,,,-99.99,,2013-02-17 17:52:00,
2013-02-17 13:02:00,15.0,-1.0,29.76,West,270,11.0,-999.0,49,-99.99,,,-99.99,,2013-02-17 18:02:00,
2013-02-17 13:11:00,15.0,-1.0,29.76,West,270,11.0,-999.0,49,-99.99,,,-99.99,,2013-02-17 18:11:00,
2013-02-17 13:22:00,15.0,0.0,29.76,WNW,299,12.0,-999.0,50,-99.99,,,-99.99,,2013-02-17 18:22:00,
2013-02-17 13:33:00,15.0,1.0,29.77,NNW,332,13.0,-999.0,52,-99.99,,,-99.99,,2013-02-17 18:33:00,
2013-02-17 13:42:00,15.0,1.0,29.77,NNW,332,13.0,-999.0,52,-99.99,,,-99.99,,2013-02-17 18:42:00,
2013-02-17 13:52:00,15.0,1.0,29.77,WNW,296,13.0,-999.0,53,-99.99,,,-99.99,,2013-02-17 18:52:00,
2013-02-17 14:02:00,15.0,1.0,29.78,NW,305,11.0,-999.0,54,-99.99,,,-99.99,,2013-02-17 19:02:00,
2013-02-17 14:11:00,15.0,1.0,29.78,NW,305,11.0,-999.0,54,-99.99,,,-99.99,,2013-02-17 19:11:00,
2013-02-17 14:22:00,15.0,1.0,29.77,West,280,12.0,-999.0,54,-99.99,,,-99.99,,2013-02-17 19:22:00,
2013-02-17 14:32:00,15.0,2.0,29.78,NW,315,12.0,-999.0,56,-99.99,,,-99.99,,2013-02-17 19:32:00,
2013-02-17 14:42:00,15.0,2.0,29.78,NW,315,12.0,-999.0,56,-99.99,,,-99.99,,2013-02-17 19:42:00,
2013-02-17 14:52:00,15.0,3.0,29.79,WNW,301,12.0,-999.0,57,-99.99,,,-99.99,,2013-02-17 19:52:00,
2013-02-17 15:02:00,14.0,1.0,29.80,NW,319,12.0,-999.0,55,-99.99,,,-99.99,,2013-02-17 20:02:00,
2013-02-17 15:11:00,14.0,1.0,29.80,NW,319,12.0,-999.0,55,-99.99,,,-99.99,,2013-02-17 20:11:00,
2013-02-17 15:22:00,14.0,1.0,29.80,WNW,298,13.0,-999.0,56,-99.99,,,-99.99,,2013-02-17 20:22:00,
2013-02-17 15:32:00,14.0,2.0,29.81,NW,304,13.0,-999.0,57,-99.99,,,-99.99,,2013-02-17 20:32:00,
2013-02-17 15:42:00,14.0,2.0,29.81,NW,304,13.0,-999.0,57,-99.99,,,-99.99,,2013-02-17 20:42:00,
2013-02-17 15:52:00,13.0,1.0,29.81,NW,308,11.0,-999.0,59,-99.99,,,-99.99,,2013-02-17 20:52:00,
2013-02-17 16:02:00,13.0,1.0,29.82,NNW,332,11.0,-999.0,57,-99.99,,,-99.99,,2013-02-17 21:02:00,
2013-02-17 16:11:00,13.0,1.0,29.82,NNW,332,11.0,-999.0,57,-99.99,,,-99.99,,2013-02-17 21:11:00,
2013-02-17 16:21:00,14.0,2.0,29.82,NW,323,9.0,-999.0,58,-99.99,,,-99.99,,2013-02-17 21:21:00,
2013-02-17 16:32:00,13.0,2.0,29.82,NW,323,11.0,-999.0,60,-99.99,,,-99.99,,2013-02-17 21:32:00,
2013-02-17 16:42:00,13.0,2.0,29.82,NW,323,11.0,-999.0,60,-99.99,,,-99.99,,2013-02-17 21:42:00,
2013-02-17 16:52:00,12.0,2.0,29.83,WNW,298,12.0,-999.0,63,-99.99,,,-99.99,,2013-02-17 21:52:00,
2013-02-17 17:01:00,11.0,2.0,29.83,NW,312,10.0,-999.0,66,-99.99,,,-99.99,,2013-02-17 22:01:00,
2013-02-17 17:12:00,11.0,2.0,29.83,NW,312,10.0,-999.0,66,-99.99,,,-99.99,,2013-02-17 22:12:00,
2013-02-17 17:22:00,11.0,3.0,29.83,WNW,292,13.0,-999.0,68,-99.99,,,-99.99,,2013-02-17 22:22:00,
2013-02-17 17:32:00,11.0,2.0,29.84,NNW,336,12.0,-999.0,66,-99.99,,,-99.99,,2013-02-17 22:32:00,
2013-02-17 17:42:00,11.0,2.0,29.84,NNW,336,12.0,-999.0,66,-99.99,,,-99.99,,2013-02-17 22:42:00,
2013-02-17 17:52:00,11.0,3.0,29.85,NNW,328,9.0,-999.0,68,-99.99,,,-99.99,,2013-02-17 22:52:00,
2013-02-17 18:02:00,11.0,3.0,29.86,NNW,332,7.0,-999.0,70,-99.99,,,-99.99,,2013-02-17 23:02:00,
2013-02-17 18:11:00,11.0,3.0,29.86,NNW,332,7.0,-999.0,70,-99.99,,,-99.99,,2013-02-17 23:11:00,
2013-02-17 18:21:00,11.0,3.0,29.86,NW,313,10.0,-999.0,70,-99.99,,,-99.99,,2013-02-17 23:21:00,
2013-02-17 18:32:00,11.0,3.0,29.88,NNW,342,9.0,-999.0,71,-99.99,,,-99.99,,2013-02-17 23:32:00,
2013-02-17 18:42:00,11.0,3.0,29.88,NNW,342,9.0,-999.0,71,-99.99,,,-99.99,,2013-02-17 23:42:00,
2013-02-17 18:52:00,11.0,4.0,29.88,NNW,328,7.0,-999.0,73,-99.99,,,-99.99,,2013-02-17 23:52:00,
2013-02-17 19:02:00,11.0,4.0,29.89,NNW,344,7.0,-999.0,74,-99.99,,,-99.99,,2013-02-18 00:02:00,
2013-02-17 19:12:00,11.0,4.0,29.89,NNW,344,7.0,-999.0,74,-99.99,,,-99.99,,2013-02-18 00:12:00,
2013-02-17 19:22:00,11.0,5.0,29.90,NW,323,7.0,-999.0,75,-99.99,,,-99.99,,2013-02-18 00:22:00,
2013-02-17 19:32:00,11.0,5.0,29.90,WNW,291,7.0,-999.0,75,-99.99,,,-99.99,,2013-02-18 00:32:00,
2013-02-17 19:42:00,11.0,5.0,29.90,WNW,291,7.0,-999.0,75,-99.99,,,-99.99,,2013-02-18 00:42:00,
2013-02-17 19:52:00,11.0,5.0,29.91,NNW,346,6.0,-999.0,76,-99.99,,,-99.99,,2013-02-18 00:52:00,
2013-02-17 20:01:00,11.0,5.0,29.91,NNW,329,9.0,-999.0,76,-99.99,,,-99.99,,2013-02-18 01:01:00,
2013-02-17 20:12:00,11.0,5.0,29.91,NNW,329,9.0,-999.0,76,-99.99,,,-99.99,,2013-02-18 01:12:00,
2013-02-17 20:21:00,10.0,4.0,29.91,NNW,342,7.0,-999.0,77,-99.99,,,-99.99,,2013-02-18 01:21:00,
2013-02-17 20:32:00,10.0,4.0,29.92,NNW,329,8.0,-999.0,77,-99.99,,,-99.99,,2013-02-18 01:32:00,
2013-02-17 20:42:00,10.0,4.0,29.92,NNW,329,8.0,-999.0,77,-99.99,,,-99.99,,2013-02-18 01:42:00,
2013-02-17 20:51:00,10.0,4.0,29.92,NNW,329,8.0,-999.0,77,-99.99,,,-99.99,,2013-02-18 01:51:00,
2013-02-17 21:02:00,11.0,6.0,29.93,NNW,342,8.0,-999.0,78,-99.99,,,-99.99,,2013-02-18 02:02:00,
2013-02-17 21:11:00,11.0,6.0,29.93,NNW,342,8.0,-999.0,78,-99.99,,,-99.99,,2013-02-18 02:11:00,
2013-02-17 21:22:00,11.0,6.0,29.93,NW,304,7.0,-999.0,78,-99.99,,,-99.99,,2013-02-18 02:22:00,
2013-02-17 21:32:00,11.0,6.0,29.93,NW,309,8.0,-999.0,79,-99.99,,,-99.99,,2013-02-18 02:32:00,
2013-02-17 21:42:00,11.0,6.0,29.93,NW,309,8.0,-999.0,79,-99.99,,,-99.99,,2013-02-18 02:42:00,
2013-02-17 21:52:00,11.0,6.0,29.93,NW,306,7.0,-999.0,79,-99.99,,,-99.99,,2013-02-18 02:52:00,
2013-02-17 22:02:00,11.0,6.0,29.94,NW,311,8.0,-999.0,78,-99.99,,,-99.99,,2013-02-18 03:02:00,
2013-02-17 22:11:00,11.0,6.0,29.94,NW,311,8.0,-999.0,78,-99.99,,,-99.99,,2013-02-18 03:11:00,
2013-02-17 22:22:00,10.0,5.0,29.94,NNW,340,8.0,-999.0,78,-99.99,,,-99.99,,2013-02-18 03:22:00,
2013-02-17 22:32:00,10.0,5.0,29.94,NW,323,8.0,-999.0,78,-99.99,,,-99.99,,2013-02-18 03:32:00,
2013-02-17 22:42:00,10.0,5.0,29.94,NW,323,8.0,-999.0,78,-99.99,,,-99.99,,2013-02-18 03:42:00,
2013-02-17 22:52:00,10.0,4.0,29.95,NW,320,8.0,-999.0,77,-99.99,,,-99.99,,2013-02-18 03:52:00,
2013-02-17 23:01:00,10.0,5.0,29.95,NNW,342,8.0,-999.0,78,-99.99,,,-99.99,,2013-02-18 04:01:00,
2013-02-17 23:11:00,10.0,5.0,29.95,NNW,342,8.0,-999.0,78,-99.99,,,-99.99,,2013-02-18 04:11:00,
2013-02-17 23:21:00,10.0,5.0,29.95,NW,311,8.0,-999.0,78,-99.99,,,-99.99,,2013-02-18 04:21:00,
2013-02-17 23:32:00,11.0,6.0,29.96,NW,308,8.0,-999.0,79,-99.99,,,-99.99,,2013-02-18 04:32:00,
2013-02-17 23:42:00,11.0,6.0,29.96,NW,308,8.0,-999.0,79,-99.99,,,-99.99,,2013-02-18 04:42:00,
2013-02-17 23:52:00,11.0,6.0,29.96,NNW,337,9.0,-999.0,79,-99.99,,,-99.99,,2013-02-18 04:52:00,